Weather History for Wolf Point, MT

Change the Weather History Date:

Tuesday, April 2, 2013

  Actual Average Record
Temperature  
Mean Temperature 37 °F -  
Max Temperature 50 °F 53 °F 61 °F (2012)
Min Temperature 23 °F 25 °F 3 °F (2002)
Degree Days  
Heating Degree Days 28    
Cooling Degree Days 0    
Moisture  
Dew Point 27 °F    
Average Humidity 81    
Maximum Humidity 92    
Minimum Humidity 61    
Precipitation  
Precipitation 0.00 in 0.02 in 0.27 in (2001)
Month to date precipitation 0.00 0.04  
Year to date precipitation 0.73 1.02  
Sea Level Pressure  
Sea Level Pressure 30.16 in    
Wind  
Wind Speed 8 mph (ENE)    
Max Wind Speed 17 mph    
Max Gust Speed -    
Visibility 8 miles    
Events      
T = Trace of Precipitation, MM = Missing Value Source: NWS Daily Summary

Daily Weather History Graph

Daily Weather History Graph

Search for Another Location

Airport:

Trip Planner

Search our weather history database for the weather conditions in past years. The results will help you decide how hot, cold, wet, or windy it might be!

Date:

Astronomy

Apr. 02, 2013 Rise Set
Actual Time 6:37 AM MDT 7:34 PM MDT
Civil Twilight 6:06 AM MDT 8:06 PM MDT
Nautical Twilight 5:28 AM MDT 8:44 PM MDT
Astronomical Twilight 4:48 AM MDT 9:24 PM MDT
Moon 2:00 AM MDT (4/2) 11:13 AM MDT (4/2)
Length of Visible Light 13h 59m
Length of Day
12h 56m
Waning Gibbous, 55% of the Moon is Illuminated
Apr 2
Waning Gibbous
Apr 2
Last Quarter
Apr 10
New
Apr 18
First Quarter
Apr 25
Full

Hourly Weather History & Observations

Time (MDT) Temp. Windchill Dew Point Humidity Pressure Visibility Wind Dir Wind Speed Gust Speed Precip Events Conditions
12:53 AM 26.1 °F 21.9 °F 21.9 °F 84% 30.26 in 8.0 mi East 3.5 mph - N/A   Clear
1:53 AM 26.1 °F 20.5 °F 21.9 °F 84% 30.26 in 8.0 mi ENE 4.6 mph - N/A   Clear
2:53 AM 25.0 °F 20.7 °F 21.9 °F 88% 30.25 in 8.0 mi ENE 3.5 mph - N/A   Clear
3:53 AM 24.1 °F 18.2 °F 21.0 °F 88% 30.25 in 9.0 mi ENE 4.6 mph - N/A   Clear
4:53 AM 24.1 °F 17.0 °F 21.0 °F 88% 30.25 in 8.0 mi East 5.8 mph - N/A   Clear
5:53 AM 23.0 °F 18.4 °F 21.0 °F 92% 30.26 in 7.0 mi East 3.5 mph - N/A   Clear
6:53 AM 23.0 °F 18.4 °F 19.9 °F 88% 30.27 in 5.0 mi East 3.5 mph - N/A   Clear
7:53 AM 25.0 °F 15.5 °F 21.9 °F 88% 30.28 in 6.0 mi East 9.2 mph - N/A   Clear
8:53 AM 26.1 °F 14.5 °F 21.9 °F 84% 30.29 in 6.0 mi East 13.8 mph - N/A   Clear
9:04 AM 26.6 °F 15.7 °F 23.0 °F 86% 30.20 in 6.0 mi East 12.7 mph - N/A   Partly Cloudy
9:53 AM 27.0 °F 16.7 °F 23.0 °F 85% 30.28 in 5.0 mi ENE 11.5 mph - N/A   Mostly Cloudy
10:14 AM 26.6 °F 14.7 °F 23.0 °F 86% 30.19 in 6.0 mi ENE 15.0 mph - N/A   Scattered Clouds
10:23 AM 28.4 °F 17.5 °F 24.8 °F 86% 30.19 in 6.0 mi East 13.8 mph - N/A   Mostly Cloudy
10:38 AM 28.4 °F 17.5 °F 24.8 °F 86% 30.19 in 7.0 mi East 13.8 mph - N/A   Scattered Clouds
10:53 AM 28.9 °F 19.2 °F 25.0 °F 85% 30.27 in 7.0 mi East 11.5 mph - N/A   Partly Cloudy
11:53 AM 33.1 °F 24.4 °F 27.0 °F 78% 30.25 in 7.0 mi East 11.5 mph - N/A   Clear
12:53 PM 37.0 °F 28.5 °F 30.9 °F 79% 30.21 in 7.0 mi East 13.8 mph - N/A   Clear
1:53 PM 42.1 °F 34.5 °F 34.0 °F 73% 30.16 in 7.0 mi East 15.0 mph - N/A   Clear
2:53 PM 46.0 °F 40.6 °F 36.0 °F 68% 30.12 in 10.0 mi ENE 11.5 mph - N/A   Clear
3:53 PM 48.9 °F - 36.0 °F 61% 30.09 in 10.0 mi ENE 12.7 mph - N/A   Clear
4:53 PM 48.0 °F - 36.0 °F 63% 30.06 in 10.0 mi ENE 16.1 mph - N/A   Clear
5:53 PM 46.0 °F 39.0 °F 35.1 °F 66% 30.05 in 10.0 mi ENE 17.3 mph - N/A   Clear
6:53 PM 43.0 °F 36.8 °F 34.0 °F 71% 30.03 in 10.0 mi East 11.5 mph - N/A   Clear
7:53 PM 37.9 °F 32.1 °F 33.1 °F 83% 30.01 in 10.0 mi ENE 8.1 mph - N/A   Clear
8:53 PM 36.0 °F 29.0 °F 32.0 °F 86% 30.00 in 10.0 mi ENE 9.2 mph - N/A   Clear
9:53 PM 37.0 °F 30.4 °F 32.0 °F 82% 29.97 in 10.0 mi NE 9.2 mph - N/A   Clear
10:53 PM 39.9 °F 35.1 °F 30.9 °F 70% 29.94 in 10.0 mi ENE 6.9 mph - N/A   Clear
11:53 PM 36.0 °F 31.1 °F 30.0 °F 79% 29.93 in 10.0 mi North 5.8 mph - N/A   Clear